sat.trackr.live / text

‹ back to catalog

ONEWEB-0519

NORAD 54137 · 2022-138AA

PAYLOAD ACTIVE UNKNOWN

§ Identity

Operator
Country
UK
Launch date
2022-10-22
Launch site
SRILR
Launch vehicle
Mass (kg)
RCS (m²)

Purposes: comms

External: N2YO · Heavens-Above · Gunter

§ Orbital elements

Epoch: 2026-05-24T23:18:11.642112Z

Period
109.11 min
Inclination
87.9162°
Eccentricity
0.0001993
Mean motion
13.19722648 rev/d
Perigee alt
1,184.3 km
Apogee alt
1,187.3 km
Semi-major
7,563.9 km
B*
9.1653e-5
RAAN
309.5919°
Arg perigee
92.3587°
Mean anomaly
267.7774°
Rev number
17,377

§ Raw data

ONEWEB-05191 54137U 22138AA  26144.97096808  .00000050  00000+0  91653-4 0  99922 54137  87.9162 309.5919 0001993  92.3587 267.7774 13.19722648173775

JSON: /api/v1/satellites/54137 · /tle

For live sub-satellite position, see the globe view (requires WebGL).

§ Visibility from observer

Set your observer location to see the next 7 days of passes ≥ 10°. The values pass through the URL so the page stays shareable.

No JS? Fill the form by hand. The geolocation button needs JavaScript.